Temperature
2 2 2 2 2 1 2 3 4 4 3 4 4 3 2 1 1 0 -0 -0 -0 -1 -1 -1 -1 -0 -0 0 0 0 1 1 1 1 1 1 1 1 1 1 1 1 1 1
1 1 1 1 1 1 1 2 2 2 2 4 3 2 1 1 0 -0 -1 -1 -1 -1 -1 -1 -1 -1 -1 -0 -0 -0 -0 0 0 1 1 1 1 0 0 0 0 1 1 1
2 0 0 2 1 1 1 1 2 2 3 2 2 1 1 -0 -1 -1 -1 -2 -2 -2 -2 -2 -1 -1 -1 -1 -1 -1 -1 -0 -0 0 0 0 0 -0 -0 -0 -0 0 0 0
1 0 2 3 1 1 1 1 1 1 2 2 1 0 -1 -1 -1 -1 -2 -2 -2 -2 -2 -2 -2 -2 -1 -1 -1 -1 -1 -1 -1 -1 -0 -0 -1 -1 -1 -1 -1 -1 -1 -0
1 2 3 2 0 -0 -0 1 1 1 1 1 -1 -1 -0 -1 -2 -2 -2 -2 -3 -3 -2 -2 -2 -2 -2 -2 -2 -2 -1 -1 -1 -1 -1 -1 -1 -1 -1 -1 -1 -1 -1 -1
-0 1 2 3 0 -1 0 1 1 -0 -0 -1 -2 0 1 -1 -2 -3 -3 -3 -3 -3 -3 -3 -3 -3 -3 -2 -2 -2 -2 -2 -2 -2 -1 -1 -1 -1 -1 -2 -2 -1 -1 -1
-0 1 2 1 -1 -1 1 2 -0 -1 -1 -2 -2 -1 -2 -3 -3 -3 -3 -3 -3 -3 -3 -3 -3 -3 -3 -3 -3 -3 -2 -2 -2 -2 -2 -2 -2 -2 -2 -2 -2 -2 -2 -2
-1 0 2 -1 -1 0 1 -1 -2 -2 -2 -2 -3 -3 -3 -3 -3 -3 -3 -3 -4 -3 -3 -3 -3 -3 -3 -3 -3 -3 -3 -3 -3 -2 -2 -2 -2 -2 -2 -2 -2 -2 -2 -2
0 1 -1 -2 -2 -2 -2 -2 -2 -3 -3 -3 -3 -4 -4 -4 -4 -4 -4 -4 -4 -3 -3 -3 -3 -3 -4 -3 -3 -3 -3 -3 -3 -3 -3 -3 -3 -3 -3 -3 -3 -3 -3 -3
-2 -1 -2 -3 -3 -2 -3 -3 -3 -3 -3 -3 -3 -4 -4 -4 -4 -4 -4 -4 -4 -4 -4 -4 -4 -4 -4 -4 -4 -4 -4 -4 -3 -3 -3 -3 -3 -3 -3 -3 -3 -4 -4 -4
-2 -2 -2 -2 -3 -3 -3 -3 -3 -3 -3 -4 -4 -4 -4 -4 -4 -4 -4 -4 -4 -4 -4 -4 -4 -4 -4 -4 -4 -4 -4 -4 -4 -4 -4 -4 -4 -4 -4 -4 -4 -4 -4 -4
-1 -1 -2 -2 -2 -3 -3 -3 -3 -3 -4 -4 -4 -4 -4 -4 -5 -5 -5 -5 -5 -4 -4 -4 -4 -4 -4 -4 -4 -5 -4 -4 -4 -4 -4 -4 -4 -4 -4 -4 -4 -4 -4 -4
-3 -3 -3 -3 -3 -3 -3 -3 -3 -4 -4 -4 -4 -4 -5 -5 -5 -5 -5 -5 -5 -5 -5 -5 -5 -5 -5 -5 -5 -5 -5 -5 -5 -5 -5 -5 -5 -5 -5 -4 -4 -4 -4 -4
-4 -4 -4 -4 -4 -4 -4 -4 -4 -4 -4 -4 -5 -5 -5 -5 -5 -5 -5 -5 -5 -5 -5 -5 -5 -5 -5 -5 -5 -5 -5 -5 -5 -5 -5 -5 -5 -5 -5 -5 -5 -5 -5 -5
-4 -4 -4 -4 -4 -4 -4 -4 -4 -4 -4 -5 -5 -5 -5 -5 -5 -5 -5 -5 -5 -5 -5 -5 -5 -5 -5 -5 -5 -5 -5 -5 -5 -5 -5 -6 -6 -6 -6 -6 -6 -5 -5 -5
-4 -5 -5 -5 -5 -5 -5 -5 -4 -5 -5 -5 -5 -5 -5 -5 -5 -5 -6 -6 -6 -6 -6 -6 -6 -6 -6 -6 -6 -6 -6 -6 -6 -6 -6 -6 -6 -6 -6 -6 -6 -6 -6 -5
-5 -5 -5 -5 -5 -5 -5 -5 -5 -5 -5 -5 -5 -5 -5 -6 -6 -6 -6 -6 -6 -6 -6 -6 -6 -6 -6 -6 -6 -6 -6 -6 -6 -6 -6 -6 -6 -6 -6 -6 -6 -6 -6 -6
-5 -5 -5 -5 -5 -5 -5 -5 -5 -5 -5 -5 -6 -6 -6 -6 -6 -6 -6 -6 -6 -6 -6 -6 -6 -6 -6 -6 -6 -6 -6 -6 -6 -6 -6 -7 -7 -7 -7 -6 -6 -6 -6 -6
-5 -5 -5 -5 -5 -5 -5 -5 -5 -5 -6 -6 -6 -6 -6 -6 -6 -6 -6 -6 -6 -6 -6 -7 -7 -7 -7 -7 -7 -7 -7 -7 -7 -7 -7 -7 -7 -7 -7 -6 -6 -6 -6 -6
-5 -5 -5 -5 -5 -5 -5 -5 -5 -6 -6 -6 -6 -6 -6 -6 -6 -6 -6 -7 -7 -7 -7 -7 -7 -7 -7 -7 -7 -7 -7 -7 -7 -7 -7 -7 -7 -7 -7 -7 -7 -7 -6 -6
-5 -5 -5 -5 -5 -6 -6 -6 -6 -6 -6 -6 -6 -6 -6 -6 -7 -7 -7 -7 -7 -7 -7 -7 -7 -7 -7 -7 -7 -7 -7 -7 -7 -7 -7 -7 -7 -7 -7 -7 -7 -7 -7 -7
-5 -6 -6 -6 -6 -6 -6 -6 -6 -6 -6 -6 -7 -7 -7 -7 -7 -7 -7 -7 -7 -7 -7 -7 -7 -7 -8 -8 -8 -8 -8 -8 -8 -8 -8 -8 -8 -8 -7 -7 -7 -7 -7 -7
-6 -6 -6 -6 -6 -6 -6 -6 -6 -6 -6 -7 -7 -7 -7 -7 -7 -7 -7 -7 -7 -7 -8 -8 -8 -8 -8 -8 -8 -8 -8 -8 -8 -8 -8 -8 -8 -8 -8 -8 -7 -7 -7 -7
-6 -6 -6 -6 -6 -6 -6 -6 -6 -7 -7 -7 -7 -7 -7 -7 -7 -7 -8 -8 -8 -8 -8 -8 -8 -8 -8 -8 -8 -8 -8 -8 -8 -8 -8 -8 -8 -8 -8 -8 -8 -7 -7 -7
-6 -6 -6 -6 -6 -6 -6 -6 -7 -7 -7 -7 -7 -7 -8 -8 -8 -8 -8 -8 -8 -8 -8 -8 -8 -8 -8 -8 -8 -8 -8 -8 -8 -8 -8 -8 -8 -8 -8 -8 -8 -8 -8 -7
-6 -6 -6 -6 -7 -7 -7 -7 -7 -7 -7 -7 -7 -8 -8 -8 -8 -8 -8 -8 -8 -8 -8 -8 -8 -8 -8 -8 -8 -8 -8 -8 -8 -8 -8 -8 -8 -8 -8 -8 -8 -8 -8 -8
-6 -6 -7 -7 -7 -7 -7 -7 -7 -7 -8 -8 -8 -8 -8 -8 -8 -8 -8 -8 -8 -8 -9 -9 -9 -9 -9 -9 -9 -9 -9 -9 -8 -8 -8 -8 -8 -8 -8 -8 -8 -8 -8 -8
Wind_Speed
6 5 5 8 10 12 13 13 11 11 12 13 9 8 8 7 6 6 6 6 6 6 6 6 6 6 6 6 6 5 5 5 5 5 5 5 5 5 5 5 6 5 6 6
4 4 5 8 11 13 15 15 15 14 15 11 8 7 8 8 7 7 7 8 7 7 7 7 7 7 7 7 6 5 5 6 5 5 5 5 5 5 5 5 5 5 6 6
3 2 3 8 10 13 11 12 11 14 12 6 7 9 9 8 8 9 8 8 8 8 8 8 8 7 7 6 6 5 5 5 5 5 5 5 5 5 5 5 5 5 6 6
2 2 7 3 1 7 10 11 13 12 10 8 9 9 9 8 8 8 8 8 8 8 8 8 8 7 6 5 5 5 5 5 5 5 5 5 5 5 5 5 5 5 6 6
3 4 7 4 3 4 6 8 9 11 11 9 6 8 7 4 5 6 7 8 8 7 8 7 7 5 5 5 5 5 5 5 5 5 5 5 5 5 5 4 5 5 5 6
4 5 6 1 1 2 3 5 4 6 8 6 3 5 5 3 5 7 7 6 6 6 6 6 6 5 5 5 4 5 5 5 5 5 5 5 5 5 5 5 5 5 5 5
7 6 6 1 2 4 4 3 2 4 5 5 5 6 5 6 7 6 6 6 5 5 5 5 5 4 4 5 5 5 5 5 4 4 4 4 5 4 4 4 4 4 5 5
6 7 6 3 5 5 3 4 3 3 4 4 5 5 5 5 5 5 5 5 5 5 5 5 4 3 4 5 5 4 4 4 4 4 4 4 4 4 4 4 4 4 4 4
7 5 1 3 4 3 3 4 4 4 4 3 4 5 5 5 5 5 5 5 5 5 5 5 4 3 4 5 4 4 4 4 4 4 4 4 4 4 4 3 3 3 3 4
5 6 5 5 5 4 4 4 4 4 3 3 4 4 5 4 5 5 5 5 5 5 5 5 4 4 4 4 4 4 4 4 3 4 4 3 3 3 3 4 4 4 4 4
6 6 5 5 6 5 4 3 3 3 3 3 4 4 4 4 4 4 5 5 4 5 5 5 5 4 4 3 3 4 4 4 4 4 4 3 3 3 4 4 4 4 4 4
6 5 5 4 3 3 3 4 3 3 3 3 3 4 4 4 4 4 4 4 4 5 5 5 5 5 4 4 3 3 4 4 3 3 3 3 3 3 4 5 6 6 6 6
6 4 5 5 4 3 3 4 4 3 3 3 3 3 3 3 4 4 4 4 5 5 5 5 5 5 5 4 3 3 3 4 3 3 3 3 3 3 4 4 4 4 5 6
6 4 4 4 4 3 2 2 2 2 2 2 2 2 2 3 3 4 4 5 5 5 5 5 5 6 6 5 3 3 4 4 4 3 3 3 3 3 3 3 4 3 3 4
5 5 5 3 2 2 1 1 1 2 2 2 2 2 2 3 3 4 5 5 4 5 5 5 5 6 6 5 4 4 3 3 3 3 3 3 3 3 3 3 3 3 3 3
3 3 3 3 3 2 2 2 2 3 3 3 3 3 3 3 3 4 4 4 4 5 5 6 6 6 5 4 4 3 3 4 4 3 3 3 3 3 3 3 3 3 3 3
3 3 4 4 4 4 4 4 4 4 3 3 3 3 2 3 3 4 4 4 4 4 5 5 6 6 5 4 4 3 3 3 4 3 2 3 2 2 3 3 3 3 3 4
5 5 5 5 5 5 5 4 3 3 3 3 2 2 2 2 3 4 4 5 4 4 5 5 6 5 5 4 4 3 3 3 3 3 3 3 2 2 3 3 3 3 3 4
4 4 4 4 4 4 4 4 3 3 3 2 2 2 3 3 3 4 4 4 4 4 5 6 7 5 5 5 5 3 3 3 3 3 3 3 3 2 2 3 3 3 3 3
3 3 3 2 2 2 3 3 2 2 2 2 2 2 2 3 3 3 3 3 3 4 5 6 5 4 5 5 5 3 3 3 3 3 3 2 2 3 3 3 3 3 3 3
3 2 2 2 1 1 2 2 2 2 2 2 2 2 3 3 3 2 2 3 4 5 5 6 4 4 4 4 5 3 3 3 3 3 3 3 2 3 3 3 3 3 3 3
2 2 2 2 1 1 1 1 1 2 1 2 2 2 2 3 3 3 3 3 4 6 5 4 4 5 5 6 3 3 3 3 3 3 2 2 2 3 3 3 3 3 3 3
2 2 2 2 2 1 1 1 1 1 2 2 2 2 2 3 2 2 3 3 4 6 5 4 5 7 7 4 3 3 3 3 3 3 3 3 3 3 3 3 3 3 3 3
1 1 1 1 1 1 1 1 1 1 2 2 2 2 2 2 2 2 3 5 6 6 4 5 7 7 6 3 3 3 3 3 3 3 3 3 3 3 3 3 3 3 3 3
1 1 1 2 2 1 1 1 1 1 1 1 2 2 2 2 2 3 3 4 5 5 4 5 7 7 4 3 3 3 3 3 3 3 3 3 3 3 3 3 3 3 3 2
2 2 2 2 2 2 1 1 1 1 1 1 2 2 2 2 2 2 2 3 4 4 4 3 4 4 3 3 4 4 3 3 4 3 3 3 3 3 3 3 3 3 3 2
1 1 1 1 1 1 1 1 1 1 2 2 2 2 2 2 2 2 3 3 3 3 3 3 3 3 3 3 3 3 3 3 3 3 3 3 3 3 3 3 3 3 3 2
Wind_Direction
263 265 238 239 230 219 223 232 242 254 256 265 276 284 288 288 290 292 298 303 303 301 304 306 305 303 300 298 294 288 280 273 270 273 270 266 262 260 259 259 258 256 258 257
255 251 245 253 242 229 231 237 244 260 265 268 276 279 285 289 284 283 291 298 300 299 300 300 299 298 298 295 292 285 274 272 274 272 270 269 261 259 258 258 255 253 254 255
248 286 271 255 234 222 227 229 229 243 253 275 281 280 284 285 276 276 282 287 290 293 294 294 293 292 291 292 290 283 276 274 276 273 268 270 265 258 259 259 257 255 257 258
242 229 238 251 166 216 230 241 232 245 260 263 270 283 282 272 265 274 282 286 289 291 292 293 291 290 289 289 284 281 279 276 274 271 266 270 269 261 260 260 259 260 262 265
213 246 268 268 215 204 221 252 234 241 260 272 289 294 273 247 261 280 286 287 290 291 291 291 290 288 285 281 284 284 283 280 277 268 264 265 267 268 263 259 259 260 261 265
210 237 248 262 131 177 197 261 217 239 264 272 280 275 285 308 301 296 293 293 297 299 296 295 294 286 278 280 283 285 288 285 278 269 265 266 269 271 265 257 258 263 266 268
221 239 262 268 146 163 216 292 335 263 265 255 250 270 299 307 304 303 302 303 304 301 296 295 292 280 276 280 283 290 291 286 279 274 273 272 273 270 264 260 262 265 270 276
203 224 246 148 156 204 280 337 304 279 270 260 268 289 295 301 306 311 312 313 312 307 305 303 296 277 277 283 290 293 290 285 283 284 281 274 271 269 265 262 265 268 271 279
210 229 330 180 219 271 303 291 291 286 277 262 269 281 292 302 306 308 311 315 318 314 311 312 309 285 281 291 294 291 289 288 288 289 287 281 276 272 271 265 263 267 270 277
251 257 260 249 254 270 277 281 286 280 273 263 265 274 285 295 302 307 312 316 318 317 313 315 316 304 290 298 298 291 290 291 290 288 289 285 278 270 270 266 265 264 264 271
248 267 283 255 249 263 273 280 288 296 287 269 264 273 280 288 296 303 309 314 315 314 314 316 320 319 313 306 299 292 293 291 287 281 281 283 280 277 273 268 264 264 266 267
241 244 242 266 277 262 252 265 270 280 293 294 275 276 287 292 298 303 310 316 319 319 318 319 323 323 324 317 301 291 289 290 284 282 283 282 286 298 291 277 282 275 274 271
256 269 263 276 278 256 251 263 273 271 270 280 287 287 291 299 302 308 313 320 321 319 319 321 327 331 330 324 309 295 292 293 291 289 288 290 291 296 308 312 297 288 284 286
247 248 257 257 260 263 264 275 284 289 284 281 286 300 305 306 307 311 315 318 319 321 323 327 331 331 330 328 319 304 299 297 294 291 289 288 287 290 294 298 304 306 302 295
238 237 245 258 261 267 268 252 280 302 308 312 306 297 296 299 302 308 313 319 322 324 328 331 331 330 332 330 325 318 311 303 300 297 294 289 286 287 288 288 290 296 303 308
248 240 229 231 243 253 251 235 249 269 280 288 293 298 298 298 300 306 315 321 322 323 324 325 326 331 333 330 326 322 317 313 308 302 299 297 288 284 286 287 289 292 295 301
209 229 228 238 246 249 245 243 242 249 257 265 279 298 305 306 311 315 319 320 316 315 319 322 325 330 333 329 323 320 318 320 317 309 303 299 291 290 293 294 294 295 296 301
233 238 230 228 232 242 253 254 250 250 252 260 277 285 285 287 295 305 314 321 323 325 328 327 328 331 332 328 321 317 314 315 315 314 311 305 298 294 294 294 299 301 305 311
233 235 236 234 230 228 235 246 251 249 253 248 254 268 279 284 289 299 311 320 322 327 331 331 332 335 333 331 328 316 314 315 316 316 315 312 310 307 302 302 305 306 308 312
234 233 235 239 232 218 228 242 244 247 247 238 249 271 287 295 302 306 307 306 310 317 318 324 326 330 330 329 328 320 318 317 317 318 320 316 311 310 310 310 310 311 313 315
234 228 224 230 250 256 237 226 224 237 247 233 234 255 277 295 302 299 300 308 320 324 323 325 331 331 328 325 318 317 318 317 317 317 320 319 308 307 309 310 308 307 309 312
229 220 220 221 231 278 292 249 229 234 241 250 259 267 287 304 309 302 286 290 311 322 325 322 326 328 330 327 327 328 325 322 319 316 313 311 307 305 305 305 303 302 303 302
227 218 216 218 226 259 293 270 242 236 240 249 253 259 271 282 285 289 300 307 314 318 320 316 321 325 331 333 328 323 322 320 317 312 309 306 303 302 303 304 304 305 306 305
222 216 215 207 192 203 262 299 302 282 266 265 262 261 266 284 291 281 297 306 315 315 312 316 324 329 333 331 323 318 317 318 316 312 310 309 305 303 300 300 303 306 308 309
208 198 188 190 208 236 257 275 300 307 306 298 295 286 275 273 277 293 303 307 315 320 317 320 327 330 330 323 321 317 314 315 314 311 309 308 308 307 303 302 304 306 308 308
205 212 222 232 237 242 238 229 252 278 292 300 306 307 307 305 302 305 304 308 308 313 317 317 319 321 322 319 317 316 315 317 318 318 313 310 307 305 304 305 307 306 304 303
190 198 210 247 254 241 234 231 242 258 262 269 289 298 307 311 312 314 315 316 316 315 314 317 319 319 319 319 320 320 319 318 316 312 311 309 308 306 304 303 304 303 304 304
Height
1479 1479 1479 1478 1479 1481 1480 1473 1470 1462 1465 1461 1464 1465 1465 1464 1463 1462 1461 1459 1458 1456 1455 1453 1452 1450 1448 1447 1446 1445 1444 1443 1442 1442 1441 1441 1441 1441 1441 1441 1441 1441 1441 1441
1480 1480 1480 1478 1475 1475 1475 1473 1470 1468 1464 1461 1463 1463 1463 1462 1460 1459 1458 1456 1455 1453 1451 1450 1448 1446 1445 1443 1442 1441 1440 1439 1438 1438 1437 1437 1437 1436 1436 1436 1436 1436 1436 1436
1472 1480 1478 1469 1466 1468 1467 1466 1466 1462 1458 1460 1461 1460 1460 1458 1457 1456 1455 1453 1451 1449 1448 1446 1444 1442 1441 1440 1438 1437 1436 1435 1434 1434 1433 1433 1432 1432 1432 1432 1432 1432 1431 1431
1475 1478 1470 1457 1463 1462 1462 1460 1461 1458 1457 1458 1458 1458 1456 1455 1454 1452 1451 1449 1447 1445 1443 1442 1440 1438 1437 1436 1434 1433 1432 1431 1430 1430 1429 1429 1428 1428 1428 1428 1427 1427 1427 1427
1474 1467 1457 1457 1460 1462 1461 1457 1455 1456 1455 1456 1456 1455 1451 1451 1450 1449 1447 1445 1443 1441 1439 1438 1436 1434 1433 1432 1431 1429 1428 1427 1427 1426 1426 1425 1425 1424 1424 1424 1423 1423 1423 1422
1474 1465 1455 1451 1459 1459 1461 1454 1452 1453 1452 1453 1454 1451 1447 1447 1446 1444 1443 1441 1439 1437 1435 1433 1432 1431 1430 1429 1428 1426 1425 1424 1423 1423 1422 1422 1421 1420 1420 1420 1419 1419 1418 1418
1470 1463 1452 1455 1458 1460 1456 1448 1451 1450 1450 1451 1450 1449 1447 1444 1443 1441 1439 1437 1435 1433 1431 1429 1428 1427 1426 1425 1424 1423 1422 1421 1420 1419 1419 1418 1418 1417 1416 1416 1415 1414 1414 1413
1467 1463 1454 1456 1457 1456 1451 1451 1450 1449 1448 1448 1447 1445 1444 1442 1440 1438 1436 1434 1432 1430 1428 1426 1425 1424 1423 1422 1421 1420 1419 1418 1417 1416 1416 1415 1414 1413 1413 1412 1411 1410 1410 1409
1458 1454 1454 1454 1453 1452 1452 1450 1449 1448 1447 1446 1444 1443 1441 1440 1438 1436 1434 1431 1429 1427 1425 1424 1423 1421 1420 1419 1418 1417 1416 1415 1414 1413 1412 1412 1411 1410 1409 1409 1408 1407 1406 1405
1458 1452 1452 1452 1451 1450 1450 1449 1447 1446 1445 1444 1442 1441 1439 1437 1436 1434 1432 1430 1428 1426 1424 1422 1421 1419 1418 1417 1415 1415 1413 1412 1411 1411 1410 1409 1408 1407 1406 1405 1404 1403 1403 1402
1454 1451 1450 1448 1448 1448 1447 1446 1445 1444 1443 1442 1440 1439 1437 1435 1434 1432 1430 1428 1426 1424 1422 1420 1418 1417 1416 1414 1413 1412 1411 1410 1409 1408 1407 1406 1405 1404 1403 1402 1401 1401 1400 1400
1446 1447 1447 1446 1445 1445 1444 1443 1443 1442 1440 1440 1438 1437 1435 1433 1432 1431 1429 1427 1425 1423 1420 1418 1417 1415 1414 1412 1411 1410 1409 1408 1407 1406 1405 1403 1402 1401 1399 1399 1398 1398 1397 1397
1445 1444 1444 1443 1443 1443 1442 1441 1441 1440 1438 1437 1436 1435 1433 1432 1431 1429 1427 1425 1423 1421 1419 1417 1415 1413 1412 1410 1409 1408 1407 1406 1405 1403 1402 1401 1399 1398 1396 1396 1395 1395 1394 1394
1442 1442 1441 1441 1441 1440 1440 1439 1438 1437 1436 1435 1434 1433 1432 1430 1429 1428 1426 1424 1422 1420 1418 1416 1414 1412 1410 1409 1407 1406 1405 1404 1403 1401 1400 1399 1397 1396 1394 1393 1392 1391 1392 1391
1439 1439 1439 1438 1438 1438 1437 1437 1436 1435 1434 1433 1432 1431 1430 1429 1427 1426 1425 1423 1421 1418 1416 1414 1412 1410 1409 1407 1405 1404 1403 1401 1400 1399 1398 1396 1395 1394 1393 1392 1390 1389 1389 1388
1435 1436 1436 1436 1436 1435 1435 1434 1434 1433 1433 1432 1431 1430 1429 1427 1426 1425 1423 1421 1419 1417 1415 1412 1411 1409 1407 1405 1403 1402 1401 1399 1398 1397 1396 1394 1393 1392 1391 1390 1389 1388 1387 1386
1433 1433 1433 1433 1433 1432 1432 1432 1432 1431 1431 1430 1429 1428 1427 1426 1424 1423 1421 1420 1418 1415 1413 1411 1409 1407 1405 1404 1402 1400 1399 1398 1396 1395 1394 1393 1391 1390 1389 1389 1388 1387 1386 1385
1430 1430 1430 1430 1430 1430 1430 1430 1430 1429 1429 1428 1427 1426 1425 1424 1422 1421 1420 1418 1416 1414 1412 1410 1408 1406 1404 1402 1400 1399 1397 1396 1395 1393 1392 1391 1390 1389 1388 1387 1386 1385 1384 1384
1427 1427 1428 1428 1428 1428 1428 1427 1427 1427 1427 1426 1425 1425 1424 1422 1421 1420 1418 1416 1414 1412 1411 1409 1407 1405 1403 1401 1399 1398 1396 1395 1393 1392 1391 1390 1389 1388 1387 1386 1385 1384 1383 1382
1425 1425 1425 1426 1426 1426 1426 1425 1425 1425 1425 1424 1424 1423 1422 1421 1419 1418 1416 1415 1413 1411 1410 1408 1406 1404 1402 1400 1399 1397 1396 1394 1393 1391 1390 1388 1387 1387 1386 1384 1383 1382 1381 1380
1423 1423 1423 1424 1424 1424 1424 1424 1423 1423 1423 1422 1422 1421 1420 1419 1418 1416 1415 1413 1412 1410 1408 1406 1405 1403 1401 1399 1398 1396 1395 1393 1392 1390 1389 1387 1386 1385 1384 1383 1382 1381 1380 1379
1421 1422 1422 1422 1422 1422 1422 1422 1422 1421 1421 1420 1420 1419 1418 1417 1416 1414 1413 1412 1410 1409 1407 1405 1404 1402 1400 1399 1397 1395 1393 1392 1390 1389 1388 1386 1385 1384 1383 1382 1381 1379 1378 1377
1420 1420 1420 1421 1421 1421 1421 1420 1420 1419 1419 1419 1418 1417 1416 1415 1414 1413 1411 1410 1409 1407 1406 1404 1403 1401 1399 1397 1396 1394 1392 1391 1389 1388 1386 1385 1384 1383 1382 1380 1379 1378 1377 1376
1419 1419 1419 1419 1419 1419 1419 1419 1418 1418 1417 1417 1416 1416 1415 1414 1412 1412 1410 1409 1407 1406 1404 1402 1401 1399 1397 1396 1394 1393 1391 1389 1388 1386 1385 1384 1382 1381 1380 1379 1378 1377 1376 1375
1417 1417 1418 1418 1418 1418 1417 1417 1417 1416 1416 1415 1415 1414 1413 1412 1411 1410 1408 1407 1406 1404 1402 1401 1399 1397 1396 1394 1392 1391 1389 1388 1386 1385 1383 1382 1381 1380 1379 1378 1377 1376 1375 1374
1416 1416 1416 1416 1416 1416 1416 1415 1415 1414 1414 1413 1413 1412 1411 1410 1409 1408 1407 1405 1404 1402 1401 1399 1397 1396 1394 1392 1391 1389 1388 1386 1385 1383 1382 1381 1380 1379 1377 1376 1376 1374 1373 1372
1414 1414 1415 1414 1414 1414 1414 1413 1413 1413 1412 1411 1411 1410 1409 1408 1407 1406 1405 1403 1402 1400 1399 1397 1396 1394 1393 1391 1389 1388 1386 1385 1383 1382 1381 1379 1378 1377 1376 1375 1374 1373 1372 1371